TimeMDT,TemperatureF,Dew PointF,Humidity,Sea Level PressureIn,VisibilityMPH,Wind Direction,Wind SpeedMPH,Gust SpeedMPH,PrecipitationIn,Events,Conditions,WindDirDegrees,DateUTC
12:15 AM,30.0,27.3,90,30.00,10.0,WSW,4.6,-,N/A,,Clear,240,2012-10-08 06:15:00
12:35 AM,31.1,28.0,88,30.00,10.0,WSW,4.6,-,N/A,,Clear,240,2012-10-08 06:35:00
12:55 AM,29.3,26.6,90,29.99,10.0,West,6.9,-,N/A,,Clear,260,2012-10-08 06:55:00
1:15 AM,30.7,27.7,88,29.99,10.0,WSW,5.8,-,N/A,,Clear,250,2012-10-08 07:15:00
1:35 AM,29.8,27.1,90,29.99,10.0,WSW,8.1,-,N/A,,Clear,250,2012-10-08 07:35:00
1:55 AM,31.6,28.2,87,29.99,10.0,WSW,4.6,-,N/A,,Clear,240,2012-10-08 07:55:00
2:15 AM,31.8,27.9,85,29.98,10.0,WSW,5.8,-,N/A,,Clear,250,2012-10-08 08:15:00
2:35 AM,30.2,27.0,88,29.96,10.0,WSW,5.8,-,N/A,,Clear,250,2012-10-08 08:35:00
2:55 AM,30.4,27.7,90,29.95,10.0,WSW,6.9,-,N/A,,Clear,250,2012-10-08 08:55:00
3:15 AM,30.6,27.5,88,29.95,10.0,West,8.1,-,N/A,,Clear,260,2012-10-08 09:15:00
3:35 AM,29.8,27.0,89,29.95,10.0,WSW,6.9,-,N/A,,Clear,250,2012-10-08 09:35:00
3:55 AM,29.8,27.1,90,29.95,10.0,WSW,6.9,-,N/A,,Clear,250,2012-10-08 09:55:00
4:15 AM,30.9,27.5,87,29.94,10.0,WSW,5.8,-,N/A,,Clear,240,2012-10-08 10:15:00
4:35 AM,29.7,26.6,88,29.94,10.0,WSW,6.9,-,N/A,,Clear,250,2012-10-08 10:35:00
4:55 AM,29.3,26.6,90,29.94,10.0,WSW,8.1,-,N/A,,Clear,250,2012-10-08 10:55:00
5:15 AM,30.9,27.3,86,29.94,10.0,WSW,6.9,-,N/A,,Clear,250,2012-10-08 11:15:00
5:35 AM,30.2,27.1,88,29.93,10.0,WSW,8.1,-,N/A,,Clear,250,2012-10-08 11:35:00
5:55 AM,30.7,27.3,87,29.93,10.0,West,6.9,-,N/A,,Clear,260,2012-10-08 11:55:00
6:15 AM,30.0,26.6,87,29.92,10.0,WSW,8.1,-,N/A,,Clear,250,2012-10-08 12:15:00
6:35 AM,30.0,26.6,87,29.93,10.0,Calm,Calm,-,N/A,,Clear,0,2012-10-08 12:35:00
6:55 AM,29.8,26.4,87,29.94,10.0,Calm,Calm,-,N/A,,Clear,0,2012-10-08 12:55:00
7:15 AM,30.6,26.6,85,29.94,10.0,WSW,4.6,-,N/A,,Clear,250,2012-10-08 13:15:00
7:35 AM,32.0,27.7,84,29.94,10.0,West,4.6,-,N/A,,Clear,260,2012-10-08 13:35:00
7:55 AM,33.1,29.1,85,29.95,10.0,West,4.6,-,N/A,,Clear,260,2012-10-08 13:55:00
8:15 AM,34.9,30.0,82,29.95,10.0,West,8.1,-,N/A,,Clear,270,2012-10-08 14:15:00
8:35 AM,37.4,31.1,78,29.95,10.0,WSW,6.9,-,N/A,,Clear,250,2012-10-08 14:35:00
8:55 AM,39.7,31.8,73,29.95,10.0,WSW,8.1,-,N/A,,Clear,250,2012-10-08 14:55:00
9:15 AM,42.8,32.0,66,29.94,10.0,WSW,9.2,-,N/A,,Clear,250,2012-10-08 15:15:00
9:35 AM,46.6,33.1,59,29.93,10.0,WSW,9.2,-,N/A,,Clear,250,2012-10-08 15:35:00
9:55 AM,49.5,33.4,54,29.93,10.0,WSW,10.4,-,N/A,,Clear,250,2012-10-08 15:55:00
10:15 AM,52.3,33.4,49,29.93,10.0,West,12.7,-,N/A,,Clear,260,2012-10-08 16:15:00
10:35 AM,55.4,32.9,43,29.92,10.0,West,10.4,-,N/A,,Clear,260,2012-10-08 16:35:00
10:55 AM,59.2,31.8,36,29.91,10.0,West,10.4,-,N/A,,Clear,260,2012-10-08 16:55:00
11:15 AM,61.5,29.8,30,29.91,10.0,West,10.4,-,N/A,,Clear,270,2012-10-08 17:15:00
11:35 AM,63.3,30.6,29,29.90,10.0,WSW,8.1,-,N/A,,Clear,240,2012-10-08 17:35:00
11:55 AM,65.1,29.1,26,29.89,10.0,SW,4.6,-,N/A,,Clear,230,2012-10-08 17:55:00
12:15 PM,65.3,28.8,25,29.88,10.0,WSW,6.9,-,N/A,,Clear,240,2012-10-08 18:15:00
12:35 PM,67.3,28.4,23,29.88,10.0,SW,8.1,-,N/A,,Clear,230,2012-10-08 18:35:00
12:55 PM,67.5,27.7,23,29.86,10.0,WSW,4.6,-,N/A,,Clear,240,2012-10-08 18:55:00
1:15 PM,69.1,25.2,19,29.85,10.0,WSW,6.9,-,N/A,,Clear,240,2012-10-08 19:15:00
1:35 PM,68.9,21.7,17,29.84,10.0,West,3.5,-,N/A,,Clear,270,2012-10-08 19:35:00
1:55 PM,70.2,19.8,15,29.84,10.0,West,9.2,-,N/A,,Clear,270,2012-10-08 19:55:00
2:15 PM,69.6,19.6,15,29.84,10.0,West,8.1,-,N/A,,Clear,270,2012-10-08 20:15:00
2:35 PM,69.4,20.1,15,29.83,10.0,West,6.9,-,N/A,,Clear,270,2012-10-08 20:35:00
2:55 PM,71.2,19.8,14,29.83,10.0,West,4.6,-,N/A,,Clear,260,2012-10-08 20:55:00
3:15 PM,70.2,18.7,14,29.83,10.0,WNW,6.9,16.1,N/A,,Clear,290,2012-10-08 21:15:00
3:35 PM,69.8,19.2,15,29.82,10.0,NW,8.1,-,N/A,,Clear,310,2012-10-08 21:35:00
3:55 PM,70.0,19.0,14,29.82,10.0,NW,3.5,-,N/A,,Clear,320,2012-10-08 21:55:00
4:15 PM,68.7,19.8,16,29.81,10.0,North,3.5,-,N/A,,Clear,350,2012-10-08 22:15:00
4:35 PM,69.6,20.1,15,29.81,10.0,Calm,Calm,-,N/A,,Clear,0,2012-10-08 22:35:00
4:55 PM,69.3,19.8,15,29.81,10.0,Calm,Calm,-,N/A,,Clear,0,2012-10-08 22:55:00
5:15 PM,69.3,20.1,15,29.81,10.0,Calm,Calm,-,N/A,,Clear,0,2012-10-08 23:15:00
5:35 PM,68.9,19.4,15,29.81,10.0,Calm,Calm,-,N/A,,Clear,0,2012-10-08 23:35:00
5:55 PM,62.6,28.0,27,29.81,10.0,NNE,4.6,-,N/A,,Clear,30,2012-10-08 23:55:00
6:15 PM,56.7,28.4,34,29.81,10.0,NNE,5.8,-,N/A,,Clear,20,2012-10-09 00:15:00
6:35 PM,55.6,26.1,32,29.81,10.0,Calm,Calm,-,N/A,,Clear,0,2012-10-09 00:35:00
6:55 PM,55.4,26.4,33,29.81,10.0,Calm,Calm,-,N/A,,Clear,0,2012-10-09 00:55:00
7:15 PM,52.2,28.2,40,29.81,10.0,Calm,Calm,-,N/A,,Clear,0,2012-10-09 01:15:00
7:35 PM,49.6,28.9,45,29.82,10.0,Calm,Calm,-,N/A,,Clear,0,2012-10-09 01:35:00
7:55 PM,49.6,29.3,46,29.83,10.0,Calm,Calm,-,N/A,,Clear,0,2012-10-09 01:55:00
8:15 PM,49.3,29.1,46,29.83,10.0,Calm,Calm,-,N/A,,Clear,0,2012-10-09 02:15:00
8:35 PM,44.1,29.7,57,29.83,10.0,Calm,Calm,-,N/A,,Clear,0,2012-10-09 02:35:00
8:55 PM,44.6,30.0,57,29.83,10.0,NNE,4.6,-,N/A,,Clear,20,2012-10-09 02:55:00
9:15 PM,44.4,30.2,57,29.84,10.0,Calm,Calm,-,N/A,,Clear,0,2012-10-09 03:15:00
9:55 PM,41.5,30.2,64,29.85,10.0,Calm,Calm,-,N/A,,Clear,0,2012-10-09 03:55:00
10:35 PM,43.7,30.0,59,29.84,10.0,ENE,4.6,-,N/A,,Clear,70,2012-10-09 04:35:00
10:55 PM,46.4,31.3,56,29.85,10.0,NE,5.8,-,N/A,,Clear,50,2012-10-09 04:55:00
11:15 PM,48.9,32.0,52,29.85,10.0,NE,8.1,-,N/A,,Clear,40,2012-10-09 05:15:00
11:35 PM,46.9,32.2,57,29.85,10.0,ENE,4.6,-,N/A,,Clear,70,2012-10-09 05:35:00
11:55 PM,48.0,32.5,55,29.85,10.0,ENE,9.2,-,N/A,,Clear,60,2012-10-09 05:55:00